Upington, South Africa

11:20 PM SAST on December 03, 2016 (GMT +0200)
Upington

Weather History for FAUP - November, 2012

Change the Weather History Date:

Saturday, November 3, 2012

  Actual Average Record
Temperature  
Mean Temperature 82 °F -  
Max Temperature 100 °F 86 °F 104 °F (1996)
Min Temperature 65 °F 57 °F 44 °F (2006)
Cooling Degree Days 18    
Growing Degree Days 32 (Base 50)    
Moisture  
Dew Point 42 °F    
Average Humidity 28    
Maximum Humidity 78    
Minimum Humidity 8    
Precipitation  
Precipitation 0.24 in - - ()
Sea Level Pressure  
Sea Level Pressure 29.89 in    
Wind  
Wind Speed 12 mph ()    
Max Wind Speed 24 mph    
Max Gust Speed 38 mph    
Visibility 6.1 miles    
Events Rain , Thunderstorm    
Averages and records for this station are not official NWS values.
T = Trace of Precipitation, MM = Missing Value Source: Averaged Metar Reports

Daily Weather History Graph

Daily Weather History Graph

Search for Another Location

Airport or City:

Trip Planner

Search our weather history database for the weather conditions in past years. The results will help you decide how hot, cold, wet, or windy it might be!

Date:

Astronomy

Nov. 03, 2012 Rise Set
Actual Time 5:40 AM SAST 6:56 PM SAST
Civil Twilight 5:15 AM SAST 7:21 PM SAST
Nautical Twilight 4:46 AM SAST 7:51 PM SAST
Astronomical Twilight 4:15 AM SAST 8:21 PM SAST
Moon 10:53 PM SAST 8:54 AM SAST
Length of Visible Light 14h 05m
Length of Day
13h 15m
Waning Gibbous, 82% of the Moon is Illuminated
Nov 3
Waning Gibbous
Nov 7
Last Quarter
Nov 14
New
Nov 20
First Quarter
Nov 28
Full

Hourly Weather History & Observations

Time (SAST) Temp. Dew Point Humidity Pressure Visibility Wind Dir Wind Speed Gust Speed Precip Events Conditions
12:00 AM 69.8 °F 24.8 °F 18% 29.92 in - North 6.9 mph - N/A   Unknown
1:00 AM 69.8 °F 24.8 °F 18% 29.92 in - North 6.9 mph - N/A   Unknown
2:00 AM 68 °F 26 °F 11%  in - South 2.3 mph - -  
2:00 AM 66.2 °F 26.6 °F 23% 29.92 in - South 2.3 mph - N/A   Unknown
3:00 AM 68.0 °F 26.6 °F 21% 29.92 in - North 5.8 mph - N/A   Unknown
4:00 AM 73.4 °F 32.0 °F 22% 29.89 in - North 10.4 mph - N/A   Unknown
5:00 AM 72 °F 34 °F 15%  in - North 10.4 mph - -  
5:00 AM 71.6 °F 33.8 °F 25% 29.92 in - North 9.2 mph - N/A   Unknown
6:00 AM 69.8 °F 33.8 °F 27% 29.92 in - North 12.7 mph - N/A   Clear
7:00 AM 73.4 °F 33.8 °F 23% 29.95 in - North 15.0 mph - N/A   Clear
8:00 AM 81 °F 38 °F 12%  in 25 mi North 21.9 mph - -   Clear
8:00 AM 80.6 °F 37.4 °F 21% 29.95 in - North 20.7 mph - N/A   Clear
8:38 AM 84.2 °F 37.4 °F 19% 29.95 in - North 23.0 mph 38.0 mph N/A   Clear
9:00 AM 86.0 °F 35.6 °F 17% 29.95 in - North 23.0 mph - N/A   Clear
10:00 AM 87.8 °F 39.2 °F 18% 29.95 in - NNW 21.9 mph 33.4 mph N/A   Clear
11:00 AM 92 °F 44 °F 11%  in 25 mi NW 24.2 mph - -   Scattered Clouds
11:00 AM 91.4 °F 42.8 °F 18% 29.92 in - NW 23.0 mph - N/A   Clear
12:00 PM 91.4 °F 39.2 °F 16% 29.92 in 6.2 mi NW 19.6 mph 33.4 mph N/A   Partly Cloudy
1:00 PM 93.2 °F 41.0 °F 16% 29.89 in 6.2 mi NW 16.1 mph 28.8 mph N/A   Partly Cloudy
1:23 PM 98.6 °F 41.0 °F 14% 29.89 in 6.2 mi NW 17.3 mph - N/A   Scattered Clouds
2:00 PM 95 °F 41 °F 8%  in 25 mi NW 19.6 mph - -   Scattered Clouds
2:00 PM 93.2 °F 39.2 °F 15% 29.86 in 6.2 mi NW 19.6 mph 33.4 mph N/A   Scattered Clouds
2:59 PM 93.2 °F 42.8 °F 17% 29.80 in 6.2 mi NNW 21.9 mph 34.5 mph N/A Thunderstorm Thunderstorm
3:00 PM 93.2 °F 41.0 °F 16% 29.80 in 6.2 mi NNW 21.9 mph 34.5 mph N/A   Scattered Clouds
3:31 PM 89.6 °F 44.6 °F 21% 29.80 in 6.2 mi NW 17.3 mph - N/A Rain , Thunderstorm Thunderstorms and Rain
4:00 PM 73.4 °F 57.2 °F 57% 29.83 in 5.0 mi West 19.6 mph 35.7 mph N/A Rain , Thunderstorm Thunderstorms and Rain
4:24 PM 68.0 °F 60.8 °F 78% 29.83 in 6.2 mi SSE 5.8 mph - N/A   Scattered Clouds
5:00 PM 76 °F 60 °F 49%  in 25 mi North 11.5 mph - - Thunderstorm Light Thunderstorm
5:00 PM 75.2 °F 59.0 °F 57% 29.80 in 6.2 mi North 11.5 mph - N/A   Scattered Clouds
6:00 PM 75.2 °F 53.6 °F 47% 29.83 in 6.2 mi NNW 17.3 mph - N/A   Mostly Cloudy
7:00 PM 75.2 °F 53.6 °F 47% 29.83 in 6.2 mi North 15.0 mph - N/A   Mostly Cloudy
8:00 PM 75 °F 52 °F 34%  in 25 mi North 13.8 mph - -   Scattered Clouds
8:00 PM 73.4 °F 51.8 °F 47% 29.86 in 6.2 mi North 12.7 mph - N/A   Mostly Cloudy
9:00 PM 71.6 °F 50.0 °F 46% 29.89 in - NNE 9.2 mph - N/A   Unknown
10:00 PM 71.6 °F 50.0 °F 46% 29.98 in - NNW 5.8 mph - N/A   Unknown
11:00 PM 70 °F 52 °F 42%  in - NW 10.4 mph - -  
11:00 PM 69.8 °F 51.8 °F 53% 30.01 in - NW 9.2 mph - N/A   Unknown